EHI
0 0 0 0 0 0 0 0 0 0 0 0 0 0 0 0 0 0 0 0 0 0 0 0 0 0 0 0 0 0 0 0 0 0 0 0 0 0 0 0 0 0 0
0 0 0 0 0 0 0 0 0 0 0 0 0 0 0 0 0 0 0 0 0 0 0 0 0 0 0 0 0 0 0 0 0 0 0 0 0 0 0 0 0 0 0
0 0 0 0 0 0 0 0 0 0 0 0 0 0 0 0 0 0 0 0 0 0 0 0 0 0 0 0 0 0 0 0 0 0 0 0 0 0 0 0 0 0 0
0 0 0 0 0 0 0 0 0 0 0 0 0 0 0 0 0 0 0 0 0 0 0 0 1 0 0 0 0 0 1 0 0 0 0 0 0 0 0 0 0 0 0
0 0 0 0 0 0 0 0 0 0 0 0 0 0 0 0 0 0 0 0 0 0 0 0 0 0 0 0 0 0 0 0 0 0 0 0 0 0 0 0 0 0 0
0 0 0 0 0 0 0 0 0 0 0 0 0 0 0 0 0 0 0 0 0 0 0 0 0 0 0 0 0 0 0 0 0 0 0 0 0 0 0 0 0 0 0
0 0 0 0 0 0 0 0 0 0 0 0 0 0 0 0 0 0 0 0 0 0 0 0 0 0 0 0 0 0 0 0 0 1 1 1 0 0 0 0 0 0 0
0 0 0 0 0 0 0 0 0 0 0 0 0 0 0 0 0 0 0 0 0 0 0 0 0 0 0 0 0 0 0 0 0 1 1 1 0 0 0 0 0 0 0
0 0 0 0 0 0 0 0 0 0 0 0 0 0 0 0 0 0 0 0 0 0 0 0 0 0 0 0 0 0 0 0 0 0 0 0 0 0 0 0 0 0 0
0 0 0 0 0 0 0 0 0 0 0 0 0 0 0 0 0 0 0 0 0 0 0 0 0 0 0 0 0 0 0 0 0 0 0 0 0 0 0 0 0 0 0
0 0 0 0 0 0 0 0 0 0 0 0 0 0 0 0 0 0 0 0 0 0 0 0 0 0 0 0 0 0 0 0 0 0 0 0 0 0 0 0 1 1 0
0 0 0 0 0 0 0 0 0 0 0 0 0 0 0 0 0 0 0 0 0 0 0 0 0 0 0 0 0 0 0 0 0 0 0 0 0 0 0 0 1 1 1
0 0 0 0 0 0 0 0 0 0 0 0 0 0 0 0 0 0 0 0 0 0 0 0 0 0 0 0 0 0 0 0 0 0 0 0 0 0 0 0 0 0 0
0 0 0 0 0 0 0 0 0 0 0 0 0 0 0 0 0 0 0 0 0 0 0 0 0 0 0 0 0 0 0 0 0 0 0 0 0 0 0 0 0 0 0
0 0 0 0 0 0 0 0 0 0 0 0 0 0 0 0 0 0 0 0 0 0 0 0 0 0 0 0 0 0 0 0 0 0 0 0 0 0 0 0 0 0 0
0 0 0 0 0 0 0 0 0 0 0 0 0 0 0 0 0 0 0 0 0 0 0 0 0 0 0 0 0 0 0 0 0 0 0 0 0 0 0 0 0 0 0
0 0 0 0 0 0 0 0 0 0 0 0 0 0 0 0 0 0 0 0 0 0 0 0 0 0 0 0 0 0 0 0 0 0 0 0 0 0 0 0 0 0 0
0 0 0 0 0 0 0 0 0 0 0 0 0 0 0 0 0 0 0 0 0 0 0 0 0 0 0 0 0 0 0 0 0 0 0 0 0 0 0 0 0 0 0
0 0 0 0 0 0 0 0 0 0 0 0 0 0 0 0 0 0 0 0 0 0 0 0 0 0 0 0 0 0 0 0 0 0 0 0 0 0 0 0 0 0 0
0 0 0 0 0 0 0 0 0 0 0 0 0 0 0 0 0 0 0 0 0 0 0 0 0 0 0 0 0 0 0 0 0 0 0 0 0 0 0 0 0 0 0
0 0 0 0 0 0 0 0 0 0 0 0 0 0 0 0 0 0 0 0 0 0 0 0 0 0 0 0 0 0 0 0 0 0 0 0 0 0 0 0 0 0 0
0 0 0 0 0 0 0 0 0 0 0 0 0 0 0 0 0 0 0 0 0 0 0 0 0 0 0 0 0 0 0 0 0 0 0 0 0 0 0 0 0 0 0
0 0 0 0 0 0 0 0 0 0 0 0 0 0 0 0 0 0 0 0 0 0 0 0 0 0 0 0 0 0 0 0 0 0 0 0 0 0 0 0 0 0 0
0 0 0 0 0 0 0 0 0 0 0 0 0 0 0 0 0 0 0 0 0 0 0 0 0 0 0 0 0 0 0 0 0 0 0 0 0 0 0 0 0 0 0
0 0 0 0 0 0 0 0 0 0 0 0 0 0 0 0 0 0 0 0 0 0 0 0 0 0 0 0 0 0 0 0 0 0 0 0 0 0 0 0 0 0 0
0 0 0 0 0 0 0 0 0 0 0 0 0 0 0 0 0 0 0 0 0 0 0 0 0 0 0 0 0 0 0 0 0 0 0 0 0 0 0 0 0 0 0
Wind_Speed
2 2 1 2 2 2 2 2 1 1 2 2 2 1 1 1 1 1 0 0 1 2 3 3 4 4 4 4 4 4 5 5 5 6 6 6 6 5 6 6 7 7 7
2 2 2 2 2 2 2 2 2 2 1 2 2 2 2 2 1 1 1 1 2 3 4 4 4 5 5 5 5 5 5 5 6 6 6 6 6 6 7 7 7 7 8
2 2 1 2 2 2 3 2 2 2 2 2 2 3 2 2 2 2 2 1 1 3 4 4 5 6 6 6 6 6 6 6 6 6 6 7 7 8 8 8 8 8 8
2 2 2 2 2 2 2 2 2 2 2 2 2 2 2 2 3 2 1 1 1 1 2 4 5 6 6 7 7 7 7 6 6 7 7 7 7 8 9 9 9 9 9
2 2 1 2 2 2 2 2 2 1 2 2 2 2 2 2 3 2 2 2 2 1 1 2 4 5 6 7 8 8 7 7 7 7 7 7 7 7 8 9 9 10 10
2 2 1 2 2 2 2 2 2 2 2 2 3 3 3 3 2 2 3 2 2 2 2 2 2 4 6 7 8 8 8 7 7 7 7 7 8 8 9 9 9 10 11
1 1 1 2 2 1 2 2 2 2 2 2 2 3 3 3 3 2 2 2 2 2 2 2 2 2 2 6 8 9 9 8 8 8 8 8 8 9 10 10 10 10 11
1 1 1 1 2 1 2 2 2 2 2 1 1 2 3 3 2 3 2 2 3 2 2 3 2 2 2 2 4 7 8 9 9 9 9 9 9 10 10 11 11 11 12
1 1 1 1 2 1 1 2 2 2 2 2 1 1 1 2 3 2 2 2 2 2 2 2 3 3 3 2 2 5 7 8 9 10 10 10 10 10 10 11 12 12 12
1 1 1 1 2 1 1 2 2 2 2 3 3 2 2 2 2 3 3 2 3 3 3 3 3 3 3 3 3 5 6 7 9 10 11 11 11 12 12 11 12 12 12
2 1 2 2 2 2 2 2 3 3 2 3 3 3 3 3 3 3 4 3 3 3 2 2 2 3 3 3 3 4 6 7 8 10 10 11 11 12 12 12 12 12 11
2 2 2 2 2 2 2 2 3 3 3 4 3 3 3 3 3 3 4 4 4 3 3 2 2 3 3 3 4 6 7 7 8 9 9 10 10 11 11 12 11 10 10
2 2 2 2 2 2 2 2 3 4 4 4 4 4 3 4 3 3 4 4 4 3 3 3 2 2 3 2 3 7 7 8 9 9 9 9 10 11 11 12 11 11 10
2 3 2 3 3 3 3 3 3 4 4 4 4 4 4 4 3 3 3 3 5 4 3 4 2 2 3 3 5 7 5 8 8 9 9 10 10 10 11 10 10 10 10
2 3 3 3 3 3 3 3 3 4 4 4 4 4 4 3 3 3 3 3 4 6 6 4 3 2 3 3 6 4 4 7 9 9 9 9 9 9 9 9 10 10 10
2 3 3 3 3 3 3 3 4 4 4 4 3 4 4 3 3 3 4 4 4 5 6 3 3 4 5 5 7 4 4 9 8 9 9 8 9 9 9 9 9 10 10
3 3 3 3 4 4 4 4 4 4 4 4 4 4 5 4 4 4 3 4 4 4 6 6 4 4 5 5 5 4 4 4 4 7 8 8 9 9 9 9 9 9 10
3 3 3 4 4 5 4 5 5 4 5 5 5 5 6 5 5 4 4 5 5 4 5 7 5 4 5 5 4 4 4 4 3 7 8 8 9 8 8 8 8 8 9
3 3 3 4 4 5 5 5 5 5 5 6 6 6 6 5 6 5 5 5 5 5 4 5 6 4 4 3 4 4 4 3 4 5 6 7 8 7 7 8 8 8 9
4 4 4 4 5 5 5 5 5 5 5 5 6 6 6 6 6 6 5 5 5 5 4 4 5 4 4 3 3 3 4 3 4 4 5 5 6 7 7 7 7 7 8
4 4 4 4 4 4 4 5 5 5 5 5 6 6 6 7 9 7 6 5 5 4 4 5 5 5 4 3 3 3 4 4 4 3 2 3 3 3 3 5 6 7 7
4 4 4 5 5 4 7 8 7 5 5 6 6 6 6 7 8 10 11 10 8 7 6 5 5 5 5 4 3 3 3 4 4 1 2 4 2 2 2 2 5 7 6
4 4 4 4 5 6 8 8 9 5 5 6 6 6 6 6 7 6 8 9 9 10 10 7 6 6 5 5 4 4 4 4 5 3 2 4 2 3 2 3 6 6 6
4 4 4 4 5 6 8 8 9 5 5 6 6 6 6 6 6 6 5 5 5 6 6 5 4 5 5 4 4 4 4 4 4 3 2 3 3 3 3 3 5 5 4
4 4 4 4 5 6 8 8 8 4 4 5 5 5 5 5 8 8 5 5 5 5 5 5 6 5 6 6 4 2 2 2 4 3 1 2 2 2 2 2 2 3 4
4 4 4 4 5 5 7 8 7 3 3 3 4 4 6 7 8 8 4 4 5 5 4 3 3 4 4 5 5 3 3 3 2 2 1 1 1 1 2 2 1 2 2
Wind_Direction
29 25 17 17 3 1 353 335 328 330 338 317 304 303 297 283 285 303 341 177 210 235 255 270 280 287 285 284 285 286 287 289 289 289 286 281 283 283 283 283 284 284 280
28 26 17 17 7 351 343 336 335 329 322 313 309 303 294 287 268 268 241 244 238 242 252 261 272 282 281 282 282 285 287 288 290 290 290 286 283 283 281 281 282 282 282
18 20 15 23 0 346 345 335 340 350 334 324 313 307 305 298 282 266 247 224 238 247 256 265 273 283 284 282 283 285 282 283 287 287 288 288 285 283 282 279 277 278 279
16 20 15 8 350 351 352 341 347 347 335 329 318 306 296 290 283 271 261 240 228 245 262 276 280 283 291 286 285 285 285 284 285 284 284 286 288 286 282 281 278 276 276
16 22 9 356 350 350 353 338 345 333 314 315 304 289 277 271 269 269 264 248 229 217 233 274 278 281 290 288 286 286 286 288 287 286 284 284 287 290 286 284 283 278 274
16 13 2 351 349 354 348 338 324 321 301 305 304 296 274 262 250 243 246 251 240 234 240 250 251 270 283 292 292 290 286 289 290 287 284 283 283 284 284 284 285 284 280
4 11 352 342 344 341 324 323 314 321 310 314 313 309 287 265 246 242 239 242 247 245 249 251 247 250 270 286 289 289 288 286 288 289 286 284 283 283 283 281 281 282 284
340 344 342 323 325 328 333 329 327 316 308 320 305 307 315 314 299 257 248 249 249 256 255 258 249 257 268 264 286 290 289 288 290 291 291 286 285 284 284 284 282 282 282
282 314 294 298 302 301 289 294 304 296 289 298 291 250 271 278 311 292 267 261 271 273 271 269 258 256 262 262 267 281 284 284 287 291 292 291 287 284 284 285 285 283 281
244 272 278 287 289 284 276 280 287 274 264 271 282 259 245 245 266 299 299 291 288 279 273 278 275 267 265 269 269 278 282 284 287 290 294 295 293 289 284 284 287 288 287
235 241 250 257 268 270 267 272 280 276 261 256 259 271 269 266 245 245 276 290 293 280 275 276 277 276 271 268 267 275 285 287 289 290 292 294 297 297 291 290 291 289 289
251 242 254 252 255 261 262 267 270 273 269 268 264 261 254 250 253 251 264 277 282 281 285 274 266 270 267 266 276 286 284 286 288 290 292 294 294 296 297 295 295 291 290
260 254 261 261 265 264 266 269 268 267 266 266 263 261 263 261 259 262 265 277 282 282 275 273 254 260 269 267 278 286 282 287 287 290 292 294 294 292 291 291 289 288 287
249 257 261 263 265 265 269 269 272 268 265 262 266 265 263 267 266 259 258 271 285 281 269 269 279 260 271 269 278 288 280 283 284 286 289 290 292 291 290 288 289 288 288
256 256 256 259 262 264 265 263 263 268 265 264 261 260 261 263 265 261 255 248 255 275 277 269 273 278 290 280 284 279 274 285 284 285 286 289 290 290 289 290 291 291 291
262 260 263 262 262 265 265 264 266 263 263 265 263 264 266 265 268 263 256 256 248 255 270 268 277 291 293 294 295 288 281 293 288 286 287 290 291 292 292 292 293 292 291
257 258 259 260 263 265 265 264 264 269 269 272 271 268 270 269 265 266 262 260 257 252 267 280 278 286 286 289 294 286 285 280 278 285 287 290 292 294 296 293 291 291 290
263 258 257 259 265 270 269 264 263 266 265 268 269 268 269 271 264 262 258 259 260 257 260 279 286 286 286 285 289 289 296 294 282 286 287 290 292 293 296 296 297 295 293
278 273 266 266 268 269 269 267 263 262 261 264 265 262 263 264 264 260 258 259 259 261 257 268 282 284 283 286 292 291 289 287 290 289 289 291 290 292 296 303 302 302 300
279 273 269 265 264 265 267 269 268 268 269 270 271 268 265 262 264 261 259 257 260 260 259 264 274 281 280 276 280 287 293 288 290 298 296 295 295 298 299 303 303 304 305
279 274 276 275 272 268 264 268 265 267 270 274 275 273 270 271 272 269 267 260 259 260 260 261 268 277 278 279 274 280 286 294 292 283 295 299 296 293 297 298 301 303 306
289 284 277 276 275 275 275 277 276 267 270 271 273 274 273 268 272 276 278 276 269 261 259 259 262 266 271 269 271 272 279 290 294 285 299 296 288 286 287 282 298 308 314
295 292 284 281 281 280 277 280 281 275 269 269 269 270 272 273 274 265 273 279 276 272 265 256 259 262 264 258 258 266 268 276 278 274 285 286 289 285 286 292 301 306 314
295 291 289 286 284 284 282 282 286 275 267 267 267 267 270 272 274 276 273 273 272 274 272 262 250 258 265 258 248 257 263 276 280 271 252 271 280 282 292 292 298 304 314
300 293 289 287 284 286 285 287 291 272 268 271 272 273 275 271 281 285 279 277 282 284 291 286 283 279 282 283 280 276 269 273 280 278 249 245 268 302 300 291 297 314 322
300 300 297 292 286 285 289 293 297 273 277 281 278 275 280 285 286 285 279 275 282 289 289 294 298 297 282 278 280 252 241 252 269 274 253 253 268 320 308 296 307 323 321